Printer-friendly version

IAU Minor Planet Center

Minor Planet Center

MPEC 2009-U64 : 2009 UH14

The following Minor Planet Electronic Circular may be linked-to from your own Web pages, but must not otherwise be redistributed electronically.


Read MPEC 2009-U63 Read MPEC 2009-U65


M.P.E.C. 2009-U64                                Issued 2009 Oct. 22, 14:40 UT

     The Minor Planet Electronic Circulars contain information on unusual
         minor planets and routine data on comets.  They are published
   on behalf of Commission 20 of the International Astronomical Union by the
          Minor Planet Center, Smithsonian Astrophysical Observatory,
                          Cambridge, MA 02138, U.S.A.

             Prepared using the Tamkin Foundation Computer Network

                              MPC@CFA.HARVARD.EDU
          URL http://www.cfa.harvard.edu/iau/mpc.html  ISSN 1523-6714

                                   2009 UH14

Observations:
     K09U14H* C2009 10 21.25774 02 36 40.03 +09 26 15.2          19.7 V EU064703
     K09U14H  C2009 10 21.26446 02 36 39.67 +09 25 59.4          19.7 V EU064703
     K09U14H  C2009 10 21.27111 02 36 39.06 +09 25 45.8          21.0 V EU064703
     K09U14H  C2009 10 21.27769 02 36 38.70 +09 25 32.8          20.1 V EU064703
     K09U14H  C2009 10 21.31914 02 36 35.30 +09 24 08.3                 EU064703
     K09U14H  C2009 10 21.34337 02 36 33.66 +09 23 13.0          19.1 V EU064703
     K09U14H  C2009 10 21.47928 02 36 23.60 +09 18 21.1          20.4 R EU064926
     K09U14H  C2009 10 21.48222 02 36 23.47 +09 18 15.1          20.3 R EU064926
     K09U14H  C2009 10 21.48517 02 36 23.20 +09 18 07.6          19.9 R EU064926
     K09U14H  C2009 10 22.27411 02 35 35.30 +08 48 13.2          19.4 V EU064G96
     K09U14H  C2009 10 22.28015 02 35 34.80 +08 47 58.6          19.4 V EU064G96
     K09U14H  C2009 10 22.28647 02 35 34.29 +08 47 43.6          19.6 V EU064G96
     K09U14H  C2009 10 22.31781 02 35 31.56 +08 46 29.6          20.1 V EU064703
     K09U14H  C2009 10 22.32626 02 35 30.73 +08 46 08.4          19.0 V EU064703
     K09U14H  C2009 10 22.33471 02 35 30.12 +08 45 49.1          19.8 V EU064703
     K09U14H  C2009 10 22.34324 02 35 29.32 +08 45 27.3          20.0 V EU064703
     K09U14H  C2009 10 22.39750 02 35 24.71 +08 43 16.2          19.9 R EU064926
     K09U14H  C2009 10 22.40043 02 35 24.45 +08 43 09.1          19.9 R EU064926
     K09U14H  C2009 10 22.40337 02 35 24.22 +08 43 02.2          20.1 R EU064926

Observer details:
703 Catalina Sky Survey.  Observer R. E. Hill.  Measurers E. C. Beshore,
    A. Boattini, G. J. Garradd, A. R. Gibbs, A. D. Grauer, R. E. Hill,
    R. A. Kowalski, S. M. Larson, R. H. McNaught.  0.68-m Schmidt + CCD.
926 Tenagra II Observatory.  Observers P. R. Holvorcem, M. Schwartz.  Measurer
    P. R. Holvorcem.  0.81-m f/7 Ritchey-Chretien + CCD.
G96 Mt. Lemmon Survey.  Observer A. D. Grauer.  Measurers E. C. Beshore,
    A. Boattini, G. J. Garradd, A. R. Gibbs, A. D. Grauer, R. E. Hill,
    R. A. Kowalski, S. M. Larson, R. H. McNaught.  1.5-m reflector + CCD.

Orbital elements:
2009 UH14                                                Earth MOID = 0.0258 AU
Epoch 2010 Jan. 4.0 TT = JDT 2455200.5                  MPC
M   4.62027              (2000.0)            P               Q
n   0.43065909     Peri.  309.85817     -0.76868242     -0.63957001
a   1.7366553      Node   190.39234     +0.60074725     -0.71715879
e   0.6934935      Incl.    2.79801     +0.21961348     -0.27682753
P   2.29           H   22.6           G   0.15           U   9
Residuals in seconds of arc
091021 703  0.8-  1.0+    091021 926  0.6+  0.9+    091022 703  0.2+  0.8+
091021 703  1.1+  0.8-    091021 926  0.3-  0.1-    091022 703  0.7-  0.3-
091021 703  0.7-  0.5-    091022 G96  0.0   0.3-    091022 926  0.4+  0.1-
091021 703  1.2+  0.3+    091022 G96  0.2+  0.5-    091022 926  0.3+  0.0
091021 703 (3.4-  3.0+)   091022 G96  0.6+  0.4-    091022 926  0.6+  0.3+
091021 703  0.6-  0.8-    091022 703  0.0   0.6+
091021 926  0.5-  0.4+    091022 703  1.5-  0.2-

Ephemeris:
2009 UH14                a,e,i = 1.74, 0.69, 3                   q = 0.5323
Date    TT    R. A. (2000) Decl.     Delta      r     Elong.  Phase     V
2009 10 16    02 40.11   +11 44.6    0.265    1.250   161.0    15.1    21.0
2009 10 18    02 39.14   +11 01.3    0.239    1.227   163.2    13.6    20.7
2009 10 20    02 37.77   +10 07.4    0.214    1.204   165.5    12.0    20.4
2009 10 22    02 35.88   +08 59.3    0.189    1.180   167.6    10.4    20.0
2009 10 24    02 33.31   +07 31.1    0.164    1.157   169.4     9.1    19.6
2009 10 26    02 29.76   +05 33.2    0.140    1.133   170.3     8.5    19.2
2009 10 28    02 24.73   +02 48.7    0.117    1.109   169.1     9.8    18.8
2009 10 30    02 17.23   -01 14.5    0.0942   1.084   165.1    13.7    18.4
2009 11 01    02 05.05   -07 43.4    0.0725   1.060   157.4    21.1    18.1
2009 11 03    01 42.23   -19 08.4    0.0531   1.035   143.7    34.6    17.7
2009 11 05    00 46.68   -40 07.0    0.0388   1.011   118.3    59.8    17.7
2009 11 07    21 33.24   -63 43.3    0.0363   0.986    80.3    97.6    18.9
2009 11 09    17 30.10   -57 35.8    0.0474   0.961    49.8   128.1    21.4
2009 11 11    16 17.64   -46 23.1    0.0657   0.936    32.7   145.1    24.1
2009 11 13    15 50.36   -39 22.8    0.0867   0.910    23.0   154.9    26.6
2009 11 15    15 36.45   -34 56.9    0.109    0.885    16.9   161.1    28.9

Sonia Keys                   (C) Copyright 2009 MPC           M.P.E.C. 2009-U64

Read MPEC 2009-U63 Read MPEC 2009-U65

Valid HTML 4.01!